Wind_Speed
16 15 15 15 16 16 16 16 16 16 16 16 17 17 17 17 17 17 17 17 16 16 16 16 16 16 16 17 17 17 17 17 17 17 18 18 18 18 18 18 18 18 18
16 15 15 15 16 16 17 16 16 16 16 16 16 17 17 18 18 19 19 19 18 18 18 17 17 18 18 18 19 19 19 19 19 19 19 19 20 20 20 20 20 20 20
17 16 16 16 16 17 17 17 17 17 17 17 17 17 18 18 18 19 19 20 20 20 19 19 19 19 19 20 20 20 20 20 20 20 21 21 21 21 21 21 21 21 21
18 17 17 17 17 17 17 18 18 18 18 18 18 18 18 19 19 19 20 20 21 21 21 21 21 20 20 20 21 22 22 22 22 22 21 21 21 22 22 22 22 22 22
19 18 18 17 17 17 17 17 18 18 18 18 19 19 18 18 19 19 20 20 21 21 21 21 22 21 21 22 22 23 24 23 23 22 22 22 22 22 22 22 22 22 22
20 19 19 19 19 18 18 18 18 18 19 19 19 19 19 19 19 19 19 20 20 21 21 22 22 22 22 23 23 24 25 24 24 23 23 23 23 22 23 23 23 23 23
23 22 22 21 21 20 20 20 20 20 20 20 20 20 20 19 19 19 19 20 20 21 21 21 22 22 23 23 23 24 24 25 24 24 24 24 23 23 23 23 23 23 23
25 25 24 24 23 23 22 22 21 21 21 21 21 21 20 20 20 20 20 19 20 20 21 21 22 22 22 23 23 24 24 24 24 24 24 24 24 23 23 23 23 23 23
27 26 26 25 25 24 24 23 23 22 22 21 21 21 21 20 20 21 20 20 20 20 21 21 21 21 22 22 23 24 24 24 24 24 24 24 24 24 24 24 24 24 25
28 27 27 26 26 25 25 24 23 22 22 21 21 21 21 20 21 21 21 21 21 21 21 21 21 21 22 22 23 24 24 25 25 25 25 25 25 25 25 25 26 26 26
28 28 27 26 26 25 25 24 23 23 22 22 22 22 21 21 21 21 22 22 22 22 22 21 21 22 22 23 23 24 24 25 26 26 27 27 27 27 27 27 27 28 28
29 28 27 27 26 25 25 24 24 24 23 23 23 22 22 22 22 23 23 23 23 23 23 23 23 23 23 24 24 24 25 25 26 27 28 29 29 29 30 30 30 30 30
29 28 27 26 26 26 25 25 25 24 24 24 23 23 23 23 23 23 23 24 24 23 24 24 24 24 24 24 25 25 26 26 27 27 28 29 30 31 31 32 32 32 32
29 28 28 27 27 26 26 26 26 25 25 25 24 23 23 23 23 23 24 24 24 24 24 24 25 25 25 26 26 26 27 28 28 28 28 29 30 30 31 32 32 33 33
30 30 29 29 28 28 27 27 27 27 27 26 25 25 24 24 24 24 24 25 25 25 25 26 26 26 26 27 27 28 28 29 29 30 30 31 31 32 32 33 33 33 34
31 31 32 31 31 30 29 28 29 29 28 28 27 26 26 26 26 26 26 26 26 27 27 27 27 27 28 28 28 29 30 30 31 32 32 32 33 33 34 34 34 34 35
32 33 33 33 33 31 30 30 30 30 30 29 29 28 28 28 28 27 27 27 28 28 28 29 29 29 29 30 30 30 31 32 32 32 32 33 33 33 34 34 34 34 35
34 35 35 36 35 34 33 32 32 32 32 31 31 30 30 30 30 30 29 30 30 30 30 30 30 31 31 31 32 32 32 32 32 33 33 33 33 34 34 34 34 34 35
36 37 37 37 36 36 35 35 35 34 33 33 33 32 32 32 32 32 32 32 32 32 32 32 33 33 33 33 33 33 33 33 33 34 34 34 34 34 34 34 35 35 36
37 38 38 38 38 37 37 37 36 36 35 35 35 35 35 34 34 34 34 34 35 34 34 35 35 35 35 35 35 35 35 35 35 35 35 35 36 35 35 36 36 36 37
38 39 39 39 39 39 38 38 37 37 37 37 37 37 37 36 36 36 36 36 37 37 37 37 37 36 36 37 37 37 36 36 36 36 36 37 37 37 36 37 38 38 39
39 39 39 39 40 40 39 39 39 39 40 39 39 39 38 38 38 39 39 39 40 40 40 39 39 39 39 38 38 38 38 37 37 37 37 38 38 37 38 39 39 39 40
40 40 40 40 41 41 41 41 42 42 41 41 40 40 40 41 42 42 42 42 43 42 42 42 42 41 41 41 40 40 40 39 39 39 39 39 39 40 40 40 41 41 42
40 40 41 41 42 42 43 43 43 43 43 42 43 43 44 44 45 45 45 45 45 45 45 45 44 44 43 42 42 42 42 42 41 41 40 40 41 41 42 42 43 43 44
41 41 42 43 43 44 45 45 45 45 45 45 46 46 46 47 47 47 47 47 47 47 47 47 46 45 45 45 44 44 43 43 43 43 42 42 42 43 44 45 45 46 47
41 42 43 43 44 45 46 47 48 48 48 48 48 49 49 50 50 50 50 50 49 49 49 48 48 48 47 47 46 46 45 45 44 44 44 44 44 45 46 47 48 49 50
Wind_Direction
251 252 255 258 260 263 265 267 269 272 274 275 276 277 278 279 281 281 283 285 287 289 290 291 291 289 287 286 284 283 283 284 285 286 288 289 291 293 294 295 295 295 295
252 252 255 259 263 266 269 271 274 276 278 279 280 280 280 281 281 281 280 281 282 284 286 287 287 286 285 283 282 281 281 282 283 284 285 287 289 290 291 292 292 293 293
253 253 255 258 262 266 270 273 276 279 281 282 284 284 284 283 283 282 281 281 281 282 283 284 284 284 283 282 281 280 280 281 281 282 284 285 287 288 288 289 290 291 291
253 254 255 257 261 266 270 274 278 281 283 285 286 287 287 286 285 284 284 283 283 282 282 282 283 282 281 280 280 279 279 279 280 281 282 283 284 285 287 288 289 290 290
252 253 255 258 262 266 271 275 279 283 285 287 288 289 289 289 289 289 287 286 284 283 282 282 281 281 279 278 277 277 277 278 279 279 280 281 282 284 286 287 288 289 289
253 256 258 260 264 268 272 276 280 283 286 287 289 290 291 291 292 292 291 289 287 285 284 283 282 281 279 278 278 278 278 278 278 278 279 280 281 283 284 286 287 288 289
254 258 261 263 266 269 272 275 277 281 283 286 288 289 290 292 292 293 292 290 289 288 287 286 284 282 280 279 279 279 279 278 278 279 280 281 282 283 284 286 287 288 289
254 258 262 265 267 269 271 273 276 278 281 283 286 288 289 291 292 292 293 291 290 289 288 287 286 284 282 281 281 280 280 279 278 278 279 280 282 283 284 285 287 288 288
254 257 261 264 267 269 271 273 275 277 279 281 283 286 287 288 290 291 292 291 290 290 289 287 286 284 283 283 282 282 281 279 278 277 278 279 280 281 283 285 286 287 288
252 254 257 261 264 267 270 272 274 276 277 279 282 284 285 286 287 289 290 290 289 288 288 287 286 284 283 283 282 282 281 280 278 277 277 278 279 280 282 283 285 287 288
248 250 252 256 260 264 267 270 273 275 277 279 281 282 283 284 286 287 288 289 288 288 287 286 286 285 283 282 282 282 281 280 279 278 277 277 278 279 280 282 283 285 287
245 247 250 253 257 261 265 268 271 274 276 278 280 281 282 283 284 285 286 287 288 288 287 286 286 286 285 284 283 282 282 281 280 279 279 278 278 278 279 280 281 283 284
244 247 249 252 255 258 262 265 269 272 275 276 277 279 281 282 282 284 285 286 287 288 287 286 286 286 286 285 284 284 283 282 281 281 281 281 280 280 280 281 282 282 283
243 246 248 251 254 257 260 263 266 269 271 273 275 277 279 280 281 282 284 285 286 286 286 287 287 286 286 286 286 285 285 284 284 284 284 284 284 283 283 283 283 284 284
242 245 247 249 251 254 257 260 263 265 267 269 272 274 276 278 280 281 282 283 284 285 285 287 288 287 287 287 287 287 287 286 286 286 286 286 286 286 285 285 285 285 284
240 243 245 247 249 252 254 257 259 262 264 267 270 272 274 276 278 279 280 282 282 282 284 285 286 286 286 287 287 287 288 288 288 288 289 288 288 286 286 285 285 285 284
239 241 244 247 249 251 253 256 258 260 263 265 268 270 272 274 276 278 280 280 281 282 282 283 284 285 286 286 287 288 288 289 289 289 290 289 288 288 287 287 286 286 285
239 241 244 246 249 250 252 254 256 259 262 264 267 269 272 273 275 276 278 278 280 281 282 282 283 285 285 286 287 287 289 289 289 290 291 291 290 290 289 288 288 287 287
240 241 243 245 248 250 251 253 256 259 262 264 266 269 270 272 274 275 276 277 278 280 281 281 282 284 285 285 286 287 288 289 290 290 291 291 292 292 291 290 290 289 289
242 242 244 246 248 250 252 254 256 259 261 263 265 266 268 270 271 273 274 276 277 279 280 281 282 283 283 284 285 286 287 288 289 290 290 291 293 293 292 292 291 291 290
246 245 246 248 249 250 252 254 256 258 259 261 263 265 266 269 271 272 274 275 276 277 278 279 281 281 282 283 284 285 286 287 288 289 290 292 293 293 293 293 293 292 292
250 250 250 251 252 252 254 255 256 257 259 261 263 266 268 270 271 271 272 273 274 275 277 278 279 280 281 282 283 284 286 286 287 289 290 291 292 293 293 294 294 294 293
252 253 253 253 254 255 255 255 257 258 260 261 264 265 266 267 267 269 270 271 272 274 275 276 277 279 279 280 282 283 284 285 286 288 290 291 292 293 293 294 294 293 293
254 254 254 255 256 256 257 258 259 260 261 262 262 263 264 266 267 268 269 270 271 273 274 275 276 277 278 279 281 282 283 284 285 287 288 289 290 292 293 294 294 293 293
254 255 256 257 258 259 259 260 260 261 262 262 263 264 265 266 268 268 269 270 270 271 271 272 273 274 276 278 279 281 282 283 285 286 287 288 290 291 293 294 294 293 294
255 256 258 259 260 261 262 263 263 263 263 263 264 265 265 266 267 267 268 268 268 269 269 270 271 272 274 276 278 280 281 283 285 286 287 288 290 292 293 293 294 294 294
Height
5865 5866 5867 5867 5868 5869 5870 5871 5872 5872 5873 5874 5874 5874 5875 5875 5875 5875 5875 5875 5875 5875 5875 5875 5875 5875 5875 5875 5875 5875 5875 5874 5874 5874 5873 5873 5873 5872 5872 5872 5871 5871 5871
5863 5864 5864 5865 5866 5866 5867 5868 5869 5869 5870 5870 5871 5871 5872 5872 5872 5873 5873 5873 5873 5873 5873 5873 5873 5872 5872 5872 5872 5872 5872 5871 5871 5871 5870 5870 5870 5869 5869 5868 5868 5868 5867
5860 5861 5861 5862 5863 5864 5864 5865 5866 5867 5867 5868 5868 5868 5869 5869 5869 5869 5870 5870 5870 5870 5870 5870 5870 5869 5869 5869 5869 5868 5868 5868 5868 5868 5867 5867 5866 5866 5866 5865 5865 5864 5864
5857 5858 5858 5859 5860 5861 5862 5863 5863 5864 5864 5865 5865 5865 5865 5866 5866 5866 5866 5866 5866 5866 5866 5866 5866 5866 5866 5866 5865 5865 5865 5864 5864 5864 5864 5863 5863 5862 5862 5862 5861 5861 5860
5854 5855 5856 5857 5857 5858 5859 5860 5860 5861 5861 5862 5862 5862 5862 5862 5862 5862 5862 5863 5863 5863 5863 5863 5862 5862 5862 5862 5861 5861 5861 5861 5860 5860 5860 5860 5859 5859 5858 5858 5858 5857 5857
5850 5852 5853 5854 5854 5855 5856 5857 5858 5858 5858 5858 5859 5859 5859 5859 5859 5859 5859 5859 5859 5859 5859 5859 5858 5858 5858 5858 5857 5857 5857 5857 5856 5856 5856 5856 5855 5855 5854 5854 5854 5853 5853
5847 5848 5849 5850 5851 5852 5853 5854 5854 5855 5855 5855 5855 5855 5856 5855 5855 5855 5855 5855 5855 5855 5855 5855 5854 5854 5854 5853 5853 5853 5853 5852 5852 5852 5852 5851 5851 5851 5850 5850 5850 5849 5849
5844 5845 5846 5847 5848 5848 5849 5850 5851 5851 5852 5852 5852 5852 5852 5852 5852 5852 5852 5851 5851 5851 5851 5850 5850 5850 5849 5849 5849 5849 5848 5848 5848 5847 5847 5847 5846 5846 5846 5846 5845 5845 5844
5840 5841 5842 5843 5844 5845 5845 5846 5847 5848 5848 5848 5848 5849 5848 5848 5848 5848 5848 5847 5847 5847 5847 5846 5846 5845 5845 5845 5844 5844 5844 5844 5843 5843 5843 5842 5842 5842 5841 5841 5841 5840 5839
5836 5837 5838 5839 5840 5840 5841 5842 5843 5843 5844 5844 5845 5845 5845 5845 5844 5844 5844 5844 5843 5843 5843 5842 5842 5841 5841 5840 5840 5840 5839 5839 5839 5838 5838 5838 5837 5837 5837 5836 5836 5835 5834
5831 5832 5834 5835 5835 5836 5837 5838 5839 5839 5840 5840 5840 5841 5841 5841 5840 5840 5840 5840 5840 5839 5839 5838 5838 5837 5837 5836 5836 5835 5835 5834 5834 5834 5833 5833 5832 5832 5832 5831 5830 5830 5829
5826 5827 5829 5830 5831 5832 5833 5834 5834 5835 5835 5836 5836 5836 5836 5836 5836 5836 5836 5836 5835 5835 5834 5834 5833 5833 5832 5831 5831 5830 5830 5829 5829 5828 5828 5827 5827 5826 5826 5825 5825 5824 5823
5821 5823 5824 5826 5827 5828 5829 5829 5830 5830 5831 5831 5831 5832 5832 5832 5832 5832 5831 5831 5831 5830 5830 5829 5829 5828 5827 5827 5826 5825 5825 5824 5824 5823 5822 5822 5821 5820 5820 5819 5818 5818 5817
5816 5818 5819 5821 5822 5823 5824 5825 5825 5826 5826 5826 5827 5827 5827 5827 5827 5827 5827 5827 5826 5826 5825 5825 5824 5823 5823 5822 5821 5820 5820 5819 5818 5818 5817 5816 5815 5814 5813 5812 5812 5811 5810
5811 5812 5814 5815 5816 5818 5819 5820 5820 5821 5821 5821 5822 5823 5823 5823 5823 5822 5822 5822 5822 5821 5821 5820 5819 5819 5818 5817 5816 5815 5814 5814 5813 5812 5811 5810 5809 5808 5807 5806 5805 5804 5803
5805 5806 5808 5809 5810 5812 5813 5814 5815 5815 5816 5816 5817 5818 5818 5818 5818 5818 5817 5817 5817 5816 5816 5815 5814 5814 5813 5812 5810 5809 5809 5808 5807 5806 5805 5804 5803 5802 5801 5799 5798 5797 5796
5799 5800 5802 5803 5805 5806 5808 5808 5809 5810 5810 5811 5812 5812 5813 5813 5812 5812 5812 5812 5811 5811 5810 5810 5809 5808 5807 5806 5805 5804 5803 5802 5801 5799 5798 5797 5796 5794 5793 5792 5791 5789 5788
5793 5794 5795 5797 5798 5800 5801 5802 5803 5803 5804 5805 5806 5807 5807 5807 5807 5807 5806 5806 5805 5805 5805 5804 5803 5802 5801 5800 5799 5798 5797 5795 5794 5793 5791 5790 5789 5787 5786 5784 5783 5781 5780
5785 5787 5789 5790 5792 5793 5794 5795 5796 5797 5798 5799 5800 5800 5800 5800 5800 5800 5800 5800 5799 5799 5798 5797 5797 5796 5795 5794 5793 5792 5790 5789 5787 5786 5784 5783 5781 5780 5778 5777 5775 5774 5772
5778 5780 5782 5784 5785 5786 5787 5788 5790 5791 5792 5792 5793 5793 5793 5793 5793 5793 5793 5793 5792 5792 5791 5791 5790 5789 5788 5787 5786 5785 5784 5782 5781 5779 5777 5775 5774 5772 5770 5768 5767 5765 5763
5770 5772 5775 5776 5778 5779 5780 5781 5783 5784 5784 5784 5785 5785 5786 5786 5786 5786 5786 5785 5785 5784 5784 5783 5783 5782 5781 5780 5779 5778 5776 5775 5773 5771 5770 5768 5766 5764 5762 5760 5758 5756 5754
5762 5764 5767 5768 5770 5771 5773 5774 5775 5775 5776 5777 5777 5778 5778 5779 5778 5778 5778 5777 5777 5776 5776 5775 5775 5774 5773 5772 5771 5770 5769 5768 5765 5763 5762 5760 5757 5755 5753 5751 5749 5747 5745
5753 5756 5758 5759 5761 5762 5764 5765 5766 5767 5768 5769 5770 5770 5770 5769 5769 5769 5769 5768 5768 5768 5767 5767 5766 5766 5765 5764 5763 5762 5760 5759 5758 5756 5753 5751 5749 5747 5744 5742 5739 5737 5735
5745 5747 5749 5750 5752 5753 5754 5755 5757 5758 5759 5761 5760 5760 5760 5759 5759 5759 5760 5759 5759 5759 5758 5758 5757 5757 5756 5755 5754 5752 5751 5750 5748 5747 5745 5742 5740 5737 5735 5732 5729 5727 5724
5736 5738 5740 5741 5742 5743 5744 5746 5747 5748 5749 5750 5750 5750 5750 5750 5750 5750 5750 5750 5749 5749 5749 5748 5748 5747 5746 5746 5745 5743 5742 5740 5738 5737 5735 5733 5730 5727 5724 5721 5718 5715 5712
5727 5729 5731 5732 5733 5733 5734 5735 5736 5737 5738 5738 5739 5739 5739 5739 5739 5739 5739 5739 5739 5739 5739 5738 5738 5737 5737 5736 5735 5734 5732 5730 5729 5727 5725 5723 5720 5717 5713 5710 5706 5703 5700